Meteo Giornale » Osservazioni meteo Stati Uniti (USA) » Maple Lake

ore: 12:35 - Osservazioni Meteo Maple Lake
Lat. 45° 14' N Lon. 93° 59' W Alt. 313 metri s.l.m.

sereno

30 °C

Sereno

Temp. 24 Ore

20 °C

30 °C

Ovest/Nord-Ovest

9.3 Km/h

Dew point 17 °C

Umidità 45 %

Visibilità  10 Km

Il sole sorge alle ore 06:36

Il sole tramonta alle ore 19:55

Data e Ora Cielo e Fenomeni T °C DP °C Um. % Pres. hPa Vis. km Vento km/h
Oggi h: 12:35 sereno Sereno 30 17 45 1012 10 O/NO 9.3
Oggi h: 12:15 sereno Sereno 29 19 54 1012 10 N 0
Oggi h: 11:55 sereno Sereno 28 20 61 1012 10 N 5.5
Oggi h: 11:35 sereno Sereno 27 20 65 1012 10 N 5.5
Oggi h: 11:15 sereno Sereno 27 20 65 1012 10 N/NO 7.4
Oggi h: 10:55 sereno Sereno 27 20 65 1011 10 N/NO 9.3
Oggi h: 10:35 sereno Sereno 26 21 73 1011 10 NO 9.3
Oggi h: 10:15 nuvoloso Nuvoloso 26 21 73 1011 10 N 13
Oggi h: 09:55 nuvoloso Nuvoloso 26 21 73 1011 10 NO 11.1
Oggi h: 09:35 sereno Sereno 26 22 78 1010 10 NO 9.3
Oggi h: 09:15 sereno Sereno 26 22 78 1010 10 NO 9.3
Oggi h: 08:55 sereno Sereno 26 22 78 1010 10 NO 7.4
Oggi h: 08:35 sereno Sereno 25 22 83 1010 10 N 0
Oggi h: 08:15 sereno Sereno 24 21 83 1009 10 N 0
Oggi h: 07:55 sereno Sereno 23 21 88 1009 11 N 0
Oggi h: 07:35 foschia Foschia 22 20 88 1009 6 N 0
Oggi h: 07:15 foschia Foschia 21 20 94 1009 2 N 0
Oggi h: 06:55 nebbia Nebbia 20 19 93 1008 0 N 0
Oggi h: 06:35 foschia Foschia 21 20 94 1008 2 N 0
Oggi h: 06:15 foschia Foschia 21 20 94 1008 5 N 0
Oggi h: 05:55 foschia Foschia 22 20 88 1008 6 N 0
Oggi h: 05:35 foschia Foschia 22 20 88 1008 6 N 0
Oggi h: 05:15 foschia Foschia 22 20 88 1008 8 N 0
Oggi h: 04:55 foschia Foschia 22 20 88 1008 8 N 0
Oggi h: 04:35 sereno Sereno 23 21 88 1007 11 N 0
Oggi h: 04:15 sereno Sereno 23 21 88 1007 11 N 0
Oggi h: 03:55 sereno Sereno 23 21 88 1007 11 N 0
Oggi h: 03:35 sereno Sereno 23 21 88 1007 11 N 0
Oggi h: 03:15 sereno Sereno 23 21 88 1007 10 N 0
Oggi h: 02:55 sereno Sereno 23 21 88 1007 10 N 0
Oggi h: 02:35 sereno Sereno 23 21 88 1007 10 S 7.4
Oggi h: 02:15 sereno Sereno 23 21 88 1007 10 S 9.3
Oggi h: 01:55 sereno Sereno 24 21 83 1007 10 S 7.4
Oggi h: 01:35 nuvoloso Nuvoloso 24 21 83 1007 10 S 9.3
Oggi h: 01:15 sereno Sereno 24 21 83 1007 10 S/SE 9.3
Oggi h: 00:55 sereno Sereno 24 21 83 1007 10 S/SE 7.4
Oggi h: 00:35 sereno Sereno 24 21 83 1007 10 S/SE 9.3
Oggi h: 00:15 nuvoloso Nuvoloso 24 21 83 1008 10 S/SE 9.3
Ieri h: 23:55 molto_nuvoloso Molto Nuvoloso 25 21 78 1008 10 S/SE 13
Ieri h: 23:35 nuvoloso Nuvoloso 25 21 78 1009 10 S/SE 9.3
Ieri h: 23:15 sereno Sereno 25 21 78 1009 10 N 5.5
Ieri h: 22:55 sereno Sereno 25 21 78 1009 10 S/SE 7.4
Ieri h: 22:35 sereno Sereno 26 21 73 1009 10 N 5.5
Ieri h: 22:15 sereno Sereno 26 21 73 1009 10 S/SE 11.1
Ieri h: 21:55 sereno Sereno 26 21 73 1008 10 S/SE 7.4
Ieri h: 21:35 nuvoloso Nuvoloso 26 21 73 1008 10 S/SE 7.4
Ieri h: 21:15 nuvoloso Nuvoloso 27 21 69 1008 10 S/SE 7.4
Ieri h: 20:55 nuvoloso Nuvoloso 27 22 74 1008 10 N 0
Ieri h: 20:35 nuvoloso Nuvoloso 27 22 74 1008 10 N 0
Ieri h: 20:15 nuvoloso Nuvoloso 27 22 74 1008 10 N 5.5
Ieri h: 19:55 molto_nuvoloso Molto Nuvoloso 27 22 74 1008 10 N 5.5
Ieri h: 19:35 coperto Coperto 28 22 69 1008 10 N 5.5
Ieri h: 19:15 molto_nuvoloso Molto Nuvoloso 28 22 69 1008 10 E 9.3
Ieri h: 18:55 nuvoloso Nuvoloso 29 22 66 1008 10 E 11.1
Ieri h: 18:35 sereno Sereno 29 21 62 1008 10 E/SE 11.1
Ieri h: 18:15 sereno Sereno 30 21 58 1008 10 E 13
Ieri h: 17:55 sereno Sereno 30 21 58 1008 10 E/SE 13
Ieri h: 17:35 sereno Sereno 30 21 58 1008 10 E/SE 11.1
Ieri h: 17:15 sereno Sereno 30 22 62 1008 10 E 13
Ieri h: 16:55 sereno Sereno 30 22 62 1008 10 E 13
Ieri h: 16:35 nuvoloso Nuvoloso 29 21 62 1008 10 E 14.8
Ieri h: 16:15 molto_nuvoloso Molto Nuvoloso 28 21 65 1008 10 E/SE 11.1
Ieri h: 15:55 molto_nuvoloso Molto Nuvoloso 29 21 62 1009 10 E 14.8
Ieri h: 15:35 nuvoloso Nuvoloso 28 21 65 1009 10 E 14.8
Ieri h: 15:15 sereno Sereno 29 21 62 1009 10 E/SE 16.7
Ieri h: 14:55 nuvoloso Nuvoloso 28 21 65 1009 10 E 16.7
Ieri h: 14:35 nuvoloso Nuvoloso 28 21 65 1009 10 E 18.5
Ieri h: 14:15 molto_nuvoloso Molto Nuvoloso 28 21 65 1009 11 E 20.3
Ieri h: 13:55 molto_nuvoloso Molto Nuvoloso 26 21 73 1009 10 E 16.7
Ieri h: 13:35 coperto Coperto 26 20 69 1010 10 E/SE 14.8
Ieri h: 13:15 coperto Coperto 25 20 73 1010 10 E 13
Ieri h: 12:55 coperto Coperto 24 20 78 1010 10 E 11.1
Ieri h: 12:35 coperto Coperto 24 20 78 1010 10 E 13